Location: Peebles
(55.6412°N, 3.1714°W)
Time: 06:19:01
(UTC+01:00)

deb Agena D - Pass Details

Date: 08 July 2022
Orbit: 797 x 980 km, 99.8° (Epoch: 16 August)

Event Time Altitude Azimuth Distance (km) Brightness Sun altitude
Rises 00:03:58 0° 15° (NNE) 3,397 10.4 -10.3°
Reaches altitude 10° 00:06:26 10° 8° (N) 2,483 9.8 -10.4°
Maximum altitude 00:11:25 37° 303° (WNW) 1,341 7.8 -10.6°
Drops below altitude 10° 00:16:36 10° 238° (WSW) 2,580 8.6 -10.8°
Sets 00:19:13 0° 231° (SW) 3,547 9.2 -10.9°
